Orbital elements of FENGYUN 1C DEB
| Launched | 9 May 1999 |
| Flight ended | – |
| Launch site | Taiyuan Space Center, PRC |
| Owner | People's Republic of China |
| NORAD ID | 31420 |
| Date fetched |
Epoch osculation |
Inc. [°] |
Ecc. | RA asc node [hr] |
Arg Peri. [°] |
Mean anom [°] |
Mean motion [rev/day] |
Abs. mag |
| Date fetched |
Epoch osculation |
Inc. [°] |
Ecc. | RA asc node [hr] |
Arg Peri. [°] |
Mean anom [°] |
Mean motion [rev/day] |
Abs. mag |
| 2026 May 07 17:58 | 2026 May 05 11:38:18 | 97.5452 | 0.01335 | 0.7893 | 245.0914 | 240.5459 | 14.41338 | – |
| 2026 May 06 17:57 | 2026 May 05 11:38:18 | 97.5452 | 0.01335 | 0.7893 | 245.0914 | 240.5459 | 14.41338 | – |
| 2026 May 05 17:57 | 2026 May 05 11:38:18 | 97.5452 | 0.01335 | 0.7893 | 245.0914 | 240.5459 | 14.41338 | – |
| 2026 May 04 17:57 | 2026 Apr 28 22:29:32 | 97.5462 | 0.01335 | 0.4035 | 265.4888 | 240.5459 | 14.41338 | – |
| 2026 May 03 17:57 | 2026 Apr 28 22:29:32 | 97.5462 | 0.01335 | 0.4035 | 265.4888 | 240.5459 | 14.41338 | – |
| 2026 May 02 17:57 | 2026 Apr 28 22:29:32 | 97.5462 | 0.01335 | 0.4035 | 265.4888 | 240.5459 | 14.41338 | – |
| 2026 May 01 17:56 | 2026 Apr 28 22:29:32 | 97.5462 | 0.01335 | 0.4035 | 265.4888 | 240.5459 | 14.41338 | – |
| 2026 Apr 30 17:56 | 2026 Apr 28 22:29:32 | 97.5462 | 0.01335 | 0.4035 | 265.4888 | 240.5459 | 14.41338 | – |
| 2026 Apr 29 17:57 | 2026 Apr 23 11:24:18 | 97.5474 | 0.01338 | 0.0817 | 282.4927 | 240.5459 | 14.41338 | – |
| 2026 Apr 28 17:56 | 2026 Apr 23 11:24:18 | 97.5474 | 0.01338 | 0.0817 | 282.4927 | 240.5459 | 14.41338 | – |
| 2026 Apr 27 17:58 | 2026 Apr 23 11:24:18 | 97.5474 | 0.01338 | 0.0817 | 282.4927 | 240.5459 | 14.41338 | – |
| 2026 Apr 26 17:58 | 2026 Apr 23 11:24:18 | 97.5474 | 0.01338 | 0.0817 | 282.4927 | 240.5459 | 14.41338 | – |
| 2026 Apr 25 17:58 | 2026 Apr 23 11:24:18 | 97.5474 | 0.01338 | 0.0817 | 282.4927 | 240.5459 | 14.41338 | – |
| 2026 Apr 24 17:59 | 2026 Apr 23 11:24:18 | 97.5474 | 0.01338 | 0.0817 | 282.4927 | 240.5459 | 14.41338 | – |
| 2026 Apr 23 17:57 | 2026 Apr 17 10:42:17 | 97.5474 | 0.01340 | 23.7263 | 301.2471 | 240.5459 | 14.41338 | – |
| 2026 Apr 22 17:57 | 2026 Apr 17 10:42:17 | 97.5474 | 0.01340 | 23.7263 | 301.2471 | 240.5459 | 14.41338 | – |
| 2026 Apr 21 17:57 | 2026 Apr 17 10:42:17 | 97.5474 | 0.01340 | 23.7263 | 301.2471 | 240.5459 | 14.41338 | – |
| 2026 Apr 20 17:57 | 2026 Apr 17 10:42:17 | 97.5474 | 0.01340 | 23.7263 | 301.2471 | 240.5459 | 14.41338 | – |
| 2026 Apr 19 17:58 | 2026 Apr 17 10:42:17 | 97.5474 | 0.01340 | 23.7263 | 301.2471 | 240.5459 | 14.41338 | – |
| 2026 Apr 18 17:56 | 2026 Apr 11 15:42:01 | 97.5482 | 0.01344 | 23.3850 | 319.2053 | 240.5459 | 14.41338 | – |
| 2026 Apr 16 17:57 | 2026 Apr 11 15:42:01 | 97.5482 | 0.01344 | 23.3850 | 319.2053 | 240.5459 | 14.41338 | – |
| 2026 Apr 14 17:57 | 2026 Apr 11 15:42:01 | 97.5482 | 0.01344 | 23.3850 | 319.2053 | 240.5459 | 14.41338 | – |
| 2026 Apr 13 17:57 | 2026 Apr 11 15:42:01 | 97.5482 | 0.01344 | 23.3850 | 319.2053 | 240.5459 | 14.41338 | – |
| 2026 Apr 12 17:57 | 2026 Apr 07 03:58:33 | 97.5483 | 0.01347 | 23.1204 | 333.0823 | 240.5459 | 14.41338 | – |
| 2026 Apr 11 17:57 | 2026 Apr 07 03:58:33 | 97.5483 | 0.01347 | 23.1204 | 333.0823 | 240.5459 | 14.41338 | – |
| 2026 Apr 10 17:58 | 2026 Apr 07 03:58:33 | 97.5483 | 0.01347 | 23.1204 | 333.0823 | 240.5459 | 14.41338 | – |